INTELSAT 33E DEB, 64410

Orbit data source: Space-Track

INTELSAT 33E DEB, 64410 is space debris in GEO originally from a launch on Wed, 24 Aug 2016 UTC launched from the French Guiana (FRGUI). Debris objects in space refer to the collection of defunct objects orbiting the Earth. Examples of debris include non-operational satellites, rocket bodies, and fragments generated from explosions, collisions, or faulty payload assembly.

Not visible in the next 10 days
Identifier
64410, 2016-053AQ
Orbit
GEO
Country
Flag of UnknownUnknown / ITSO
Related business
Manufacturer
Boeing/ES
Mission
Spacecraft
Bus & Motor
Unknown
Mass
Unknown
Launch date (UTC)
2016-08-24 (9 years ago)
Launch vehicle
Unknown
Launch site
French Guiana (FRGUI)
Object type
Payload
Rocket body
Debris
Shape & HBR
Unknown shape, 1.1 m
Radar Cross Section
RCS unknown

Expand to show TLE details & history
Last TLE update: 11 hours ago

TLE from 11 hours ago
0 INTELSAT 33E DEB
1 64410U 16053AQ  25291.75915592  .00000086  00000-0  00000-0 0  9996
2 64410   0.8559  64.6032 0059257  20.7719 275.3210  0.99985395  3469
Epoch: 2025-10-18T18:13Z
TLE epoch observation values (Epoch: 2025-10-18T18:13:11.071Z)
Latitude
-0.75839°
Longitude
59.22058°
Altitude
35,844.178 km
Speed
3.073 km/s
True Right ascension
00h 00m 00s
True Declination
0° 45' 27"
Sunlit
Object was in daylight at epoch
Visualization orbit readout
Latitude
Unknown
Longitude
Unknown
Altitude
Unknown
Speed
Unknown
Apparent Right ascension
Unknown
Apparent Declination
Unknown
Sunlit
N/A
Visualization observer readout
Local Sidereal Time
00:12:30
Azimuth
Unknown
Elevation
Unknown
Doppler factor
Unknown
Orbital elements
Apogee altitude
36,118.479 km
Perigee altitude
35,617.801 km
Semi-major axis
42,246.277 km
Eccentricity
0.00593
Inclination
0.8559°
RAAN
64.6032°
Arg. of periapsis
20.7719°
True anomaly
274.64444°
Mean anomaly
275.321°
Eccentric anomaly
274.98277°
Mean motion
0.24995 °/min
Orbital period
1,440.26 mins
BSTAR
0
Loading maneuver chart data...
Computing Atmospheric mass density...
Loading historical data...
Loading historical data...
Loading historical data...
Loading historical data...
Loading historical data...
Loading historical data...
Loading historical data...

Documentation

Showing up to 5 results
|